| time (UTC) | temp C | wind direction | speed KPH | gust KPH | rain 1hr cm | rain 24hr cm | rain mn cm | humidity % | barometer mb |
| 20260505124551 | 11 | 234 | 0.0 | 4.8 | 0.00 | 0.00 | 0.00 | 86 | 1015.0 |
| 20260505123016 | 11 | 210 | 0.0 | 0.0 | 0.00 | 0.00 | 0.00 | 86 | 1014.9 |
| 20260505121539 | 11 | 162 | 0.0 | 0.0 | 0.00 | 0.00 | 0.00 | 86 | 1014.9 |
| 20260505120057 | 11 | 159 | 0.0 | 1.6 | 0.00 | 0.00 | 0.00 | 86 | 1014.8 |
| 20260505114518 | 11 | 149 | 0.0 | 3.2 | 0.00 | 0.00 | 0.00 | 86 | 1014.9 |
| 20260505113039 | 11 | 92 | 0.0 | 3.2 | 0.00 | 0.00 | 0.00 | 87 | 1014.9 |
| 20260505111552 | 11 | 241 | 0.0 | 3.2 | 0.00 | 0.00 | 0.00 | 87 | 1014.8 |
| 20260505101510 | 10 | 100 | 0.0 | 3.2 | 0.00 | 0.00 | 0.00 | 88 | 1014.4 |
| 20260505100045 | 10 | 108 | 0.0 | 0.0 | 0.00 | 0.00 | 0.00 | 88 | 1014.5 |
| 20260505094601 | 10 | 118 | 0.0 | 3.2 | 0.00 | 0.00 | 0.00 | 88 | 1014.6 |
| 20260505094502 | 10 | 117 | 0.0 | 3.2 | 0.00 | 0.00 | 0.00 | 88 | 1014.5 |
| 20260505093038 | 10 | 102 | 0.0 | 1.6 | 0.00 | 0.00 | 0.00 | 87 | 1014.5 |
| 20260505091519 | 11 | 83 | 0.0 | 4.8 | 0.00 | 0.00 | 0.00 | 86 | 1014.3 |
| 20260505090051 | 11 | 119 | 0.0 | 3.2 | 0.00 | 0.00 | 0.00 | 85 | 1014.1 |
| 20260505084535 | 11 | 179 | 0.0 | 4.8 | 0.00 | 0.00 | 0.00 | 84 | 1014.1 |
| 20260505083117 | 11 | 185 | 0.0 | 6.4 | 0.00 | 0.00 | 0.00 | 84 | 1014.1 |
| 20260505083005 | 11 | 185 | 0.0 | 8.0 | 0.00 | 0.00 | 0.00 | 84 | 1014.1 |
| 20260505081551 | 11 | 177 | 1.6 | 11.3 | 0.00 | 0.00 | 0.00 | 83 | 1014.0 |
| 20260505080028 | 12 | 185 | 0.0 | 1.6 | 0.00 | 0.00 | 0.00 | 83 | 1013.8 |
| 20260505074547 | 12 | 239 | 0.0 | 4.8 | 0.00 | 0.00 | 0.00 | 82 | 1013.6 |
| 20260505073015 | 12 | 141 | 0.0 | 6.4 | 0.00 | 0.00 | 0.00 | 81 | 1013.4 |
| 20260505071540 | 12 | 154 | 0.0 | 8.0 | 0.00 | 0.00 | 0.00 | 80 | 1013.3 |
| 20260505070023 | 13 | 213 | 1.6 | 6.4 | 0.00 | 0.00 | 0.00 | 80 | 1013.2 |
| 20260505064604 | 13 | 185 | 3.2 | 9.7 | 0.00 | 0.00 | 0.00 | 79 | 1013.1 |
| 20260505064500 | 13 | 215 | 1.6 | 6.4 | 0.00 | 0.00 | 0.00 | 79 | 1013.1 |
| 20260505063052 | 13 | 129 | 1.6 | 11.3 | 0.00 | 0.00 | 0.00 | 79 | 1012.8 |
| 20260505061537 | 13 | 122 | 1.6 | 4.8 | 0.00 | 0.00 | 0.00 | 78 | 1012.6 |
| 20260505060028 | 14 | 158 | 1.6 | 9.7 | 0.00 | 0.00 | 0.00 | 77 | 1012.6 |
| 20260505054510 | 14 | 222 | 0.0 | 3.2 | 0.00 | 0.00 | 0.00 | 76 | 1012.6 |
| 20260505053030 | 15 | 155 | 3.2 | 8.0 | 0.00 | 0.00 | 0.00 | 75 | 1012.4 |
| 20260505051523 | 16 | 198 | 1.6 | 9.7 | 0.00 | 0.00 | 0.00 | 73 | 1012.3 |
| 20260505041529 | 18 | 179 | 1.6 | 4.8 | 0.00 | 0.00 | 0.00 | 67 | 1011.4 |
| 20260505040055 | 18 | 234 | 1.6 | 8.0 | 0.00 | 0.00 | 0.00 | 66 | 1011.2 |
| 20260505034537 | 18 | 264 | 1.6 | 8.0 | 0.00 | 0.00 | 0.00 | 66 | 1010.9 |
| 20260505033016 | 19 | 187 | 1.6 | 12.9 | 0.00 | 0.00 | 0.00 | 65 | 1010.8 |
| 20260505031537 | 20 | 227 | 3.2 | 8.0 | 0.00 | 0.00 | 0.00 | 65 | 1010.6 |
| 20260505030020 | 20 | 193 | 3.2 | 14.5 | 0.00 | 0.00 | 0.00 | 66 | 1010.4 |
| 20260505024556 | 20 | 179 | 3.2 | 14.5 | 0.00 | 0.00 | 0.00 | 65 | 1010.2 |
| 20260505023016 | 21 | 184 | 6.4 | 12.9 | 0.00 | 0.00 | 0.00 | 65 | 1010.1 |
| 20260505021558 | 21 | 200 | 4.8 | 11.3 | 0.00 | 0.00 | 0.00 | 64 | 1010.2 |
| 20260505020033 | 21 | 168 | 1.6 | 16.1 | 0.00 | 0.00 | 0.00 | 63 | 1010.1 |
| 20260505014518 | 21 | 112 | 0.0 | 16.1 | 0.00 | 0.00 | 0.00 | 63 | 1010.1 |
| 20260505013046 | 21 | 165 | 3.2 | 11.3 | 0.00 | 0.00 | 0.00 | 63 | 1010.2 |
| 20260505011510 | 22 | 165 | 6.4 | 11.3 | 0.00 | 0.00 | 0.00 | 62 | 1010.4 |
| 20260505010041 | 22 | 265 | 6.4 | 11.3 | 0.00 | 0.00 | 0.00 | 61 | 1010.4 |
| 20260505004554 | 22 | 187 | 4.8 | 14.5 | 0.00 | 0.00 | 0.00 | 60 | 1010.5 |
| 20260505003040 | 22 | 231 | 4.8 | 14.5 | 0.00 | 0.00 | 0.00 | 59 | 1010.5 |
| 20260505001600 | 22 | 197 | 4.8 | 12.9 | 0.00 | 0.00 | 0.00 | 58 | 1010.6 |
| 20260505001508 | 22 | 236 | 4.8 | 12.9 | 0.00 | 0.00 | 0.00 | 59 | 1010.6 |
| 20260505000052 | 22 | 200 | 6.4 | 16.1 | 0.00 | 0.00 | 0.00 | 60 | 1010.7 |
| 20260504234629 | 22 | 204 | 3.2 | 12.9 | 0.00 | 0.00 | 0.00 | 59 | 1010.7 |
| 20260504233023 | 22 | 193 | 1.6 | 16.1 | 0.00 | 0.00 | 0.00 | 60 | 1010.9 |
| 20260504231556 | 22 | 203 | 6.4 | 14.5 | 0.00 | 0.00 | 0.00 | 59 | 1011.1 |
| 20260504230010 | 21 | 147 | 3.2 | 16.1 | 0.00 | 0.00 | 0.00 | 60 | 1011.2 |
| 20260504224535 | 21 | 213 | 4.8 | 14.5 | 0.00 | 0.00 | 0.00 | 59 | 1011.3 |
| 20260504223032 | 22 | 173 | 3.2 | 12.9 | 0.00 | 0.00 | 0.00 | 58 | 1011.5 |
| 20260504221559 | 21 | 98 | 1.6 | 12.9 | 0.00 | 0.00 | 0.00 | 60 | 1011.6 |
| 20260504220019 | 21 | 184 | 4.8 | 11.3 | 0.00 | 0.00 | 0.00 | 60 | 1011.8 |
| 20260504214539 | 20 | 187 | 1.6 | 14.5 | 0.00 | 0.00 | 0.00 | 61 | 1011.8 |
| 20260504213057 | 20 | 309 | 3.2 | 11.3 | 0.00 | 0.00 | 0.00 | 62 | 1012.1 |
| 20260504211548 | 19 | 244 | 3.2 | 12.9 | 0.00 | 0.00 | 0.00 | 65 | 1012.3 |
| 20260504210110 | 20 | 208 | 1.6 | 11.3 | 0.00 | 0.00 | 0.00 | 63 | 1012.5 |
| 20260504210002 | 19 | 177 | 3.2 | 12.9 | 0.00 | 0.00 | 0.00 | 64 | 1012.5 |
| 20260504204523 | 18 | 144 | 1.6 | 14.5 | 0.00 | 0.00 | 0.00 | 64 | 1012.7 |
| 20260504203017 | 17 | 225 | 6.4 | 14.5 | 0.00 | 0.00 | 0.00 | 69 | 1012.8 |
| 20260504201530 | 18 | 195 | 1.6 | 9.7 | 0.00 | 0.00 | 0.00 | 65 | 1013.0 |
| 20260504200059 | 17 | 193 | 3.2 | 12.9 | 0.00 | 0.00 | 0.00 | 70 | 1013.1 |
| 20260504194533 | 16 | 195 | 9.7 | 16.1 | 0.00 | 0.00 | 0.00 | 72 | 1013.2 |
| 20260504193058 | 16 | 210 | 3.2 | 11.3 | 0.00 | 0.00 | 0.00 | 73 | 1013.3 |
| 20260504191519 | 15 | 226 | 4.8 | 14.5 | 0.00 | 0.00 | 0.00 | 75 | 1013.4 |
| 20260504190125 | 15 | 182 | 3.2 | 12.9 | 0.00 | 0.00 | 0.00 | 77 | 1013.5 |
| 20260504184520 | 14 | 276 | 4.8 | 16.1 | 0.00 | 0.00 | 0.00 | 77 | 1013.7 |
| 20260504183057 | 14 | 127 | 4.8 | 12.9 | 0.00 | 0.00 | 0.00 | 78 | 1013.7 |
| 20260504181519 | 14 | 225 | 3.2 | 12.9 | 0.00 | 0.00 | 0.00 | 78 | 1013.7 |
| 20260504180109 | 13 | 241 | 4.8 | 11.3 | 0.00 | 0.00 | 0.00 | 79 | 1013.7 |
| 20260504174509 | 13 | 262 | 4.8 | 16.1 | 0.00 | 0.00 | 0.00 | 80 | 1013.6 |
| 20260504173057 | 13 | 199 | 6.4 | 11.3 | 0.00 | 0.00 | 0.00 | 81 | 1013.5 |
| 20260504171511 | 13 | 174 | 4.8 | 8.0 | 0.00 | 0.00 | 0.00 | 82 | 1013.5 |